Location: Morrison Planetarium
(37.7700°N, 122.4659°W)
Time: 12:04:28
(UTC-07:00)

N. Korean satellite - Visible Passes

Search period start: 24 March 2019 00:00
Search period end: 03 April 2019 00:00
Orbit: 456 x 510 km, 97.2° (Epoch: 23 March)

Date Brightness Start Highest point End Pass type
(mag) Time Alt. Az. Time Alt. Az. Time Alt. Az.
24 Mar 10.1 06:19:53 10° ENE 06:21:37 13° E 06:23:23 10° ESE visible
28 Mar 10.3 06:14:33 10° ENE 06:15:42 11° E 06:16:51 10° ESE visible
31 Mar 9.7 06:32:00 10° NE 06:34:44 20° E 06:37:29 10° SE visible
